Time,TemperatureF,DewpointF,PressureIn,WindDirection,WindDirectionDegrees,WindSpeedMPH,WindSpeedGustMPH,Humidity,HourlyPrecipIn,Conditions,Clouds,dailyrainin,SolarRadiationWatts/m^2,SoftwareType,DateUTC
2013-01-22 04:22:00,-3.4,-10.0,30.33,NW,323,9.0,14.0,73,0.00,,,0.00,0,weatherlink.com 1.10,2013-01-22 10:22:00,
2013-01-22 04:32:00,-3.5,-10.0,30.34,NW,315,7.0,10.0,73,0.00,,,0.00,0,weatherlink.com 1.10,2013-01-22 10:32:00,
2013-01-22 04:47:00,-3.7,-10.0,30.34,NW,311,6.0,9.0,74,0.00,,,0.00,0,weatherlink.com 1.10,2013-01-22 10:47:00,
2013-01-22 05:02:00,-3.9,-10.0,30.34,WNW,302,5.0,8.0,74,0.00,,,0.00,0,weatherlink.com 1.10,2013-01-22 11:02:00,
2013-01-22 05:18:00,-4.0,-10.0,30.35,NW,305,7.0,9.0,74,0.00,,,0.00,0,weatherlink.com 1.10,2013-01-22 11:18:00,
2013-01-22 05:33:00,-4.0,-10.0,30.35,NW,306,5.0,9.0,74,0.00,,,0.00,0,weatherlink.com 1.10,2013-01-22 11:33:00,
2013-01-22 05:48:00,-4.2,-11.0,30.35,NW,305,4.0,7.0,74,0.00,,,0.00,0,weatherlink.com 1.10,2013-01-22 11:48:00,
2013-01-22 06:03:00,-4.4,-10.0,30.35,WNW,290,6.0,7.0,75,0.00,,,0.00,0,weatherlink.com 1.10,2013-01-22 12:03:00,
2013-01-22 06:18:00,-4.5,-10.0,30.36,WNW,296,3.0,6.0,76,0.00,,,0.00,0,weatherlink.com 1.10,2013-01-22 12:18:00,
2013-01-22 06:33:00,-4.8,-11.0,30.36,WNW,296,2.0,4.0,76,0.00,,,0.00,0,weatherlink.com 1.10,2013-01-22 12:33:00,
2013-01-22 06:48:00,-4.6,-10.0,30.37,WNW,296,3.0,5.0,76,0.00,,,0.00,0,weatherlink.com 1.10,2013-01-22 12:48:00,
2013-01-22 07:03:00,-4.6,-10.0,30.37,WNW,296,3.0,7.0,77,0.00,,,0.00,0,weatherlink.com 1.10,2013-01-22 13:03:00,
2013-01-22 07:18:00,-4.4,-10.0,30.38,WNW,287,5.0,7.0,77,0.00,,,0.00,5,weatherlink.com 1.10,2013-01-22 13:18:00,
2013-01-22 07:33:00,-4.2,-10.0,30.38,WNW,287,6.0,10.0,77,0.00,,,0.00,16,weatherlink.com 1.10,2013-01-22 13:33:00,
2013-01-22 07:48:00,-3.9,-9.0,30.38,WNW,287,5.0,7.0,77,0.00,,,0.00,47,weatherlink.com 1.10,2013-01-22 13:48:00,
2013-01-22 08:03:00,-3.2,-9.0,30.38,WNW,294,8.0,8.0,77,0.00,,,0.00,84,weatherlink.com 1.10,2013-01-22 14:03:00,
2013-01-22 08:18:00,-2.4,-8.0,30.39,WNW,286,6.0,9.0,76,0.00,,,0.00,121,weatherlink.com 1.10,2013-01-22 14:18:00,
2013-01-22 08:33:00,-1.9,-8.0,30.38,West,272,3.0,9.0,76,0.00,,,0.00,155,weatherlink.com 1.10,2013-01-22 14:33:00,
2013-01-22 08:49:00,-1.2,-7.0,30.39,WNW,285,5.0,8.0,76,0.00,,,0.00,190,weatherlink.com 1.10,2013-01-22 14:49:00,
2013-01-22 09:04:00,-0.9,-7.0,30.39,WNW,289,7.0,10.0,75,0.00,,,0.00,253,weatherlink.com 1.10,2013-01-22 15:04:00,
2013-01-22 09:19:00,-0.6,-7.0,30.39,WNW,297,8.0,11.0,75,0.00,,,0.00,107,weatherlink.com 1.10,2013-01-22 15:19:00,
2013-01-22 09:34:00,0.0,-6.0,30.40,West,272,6.0,13.0,75,0.00,,,0.00,304,weatherlink.com 1.10,2013-01-22 15:34:00,
2013-01-22 09:49:00,0.4,-6.0,30.40,West,281,7.0,14.0,74,0.00,,,0.00,258,weatherlink.com 1.10,2013-01-22 15:49:00,
2013-01-22 10:04:00,0.5,-6.0,30.40,WNW,292,9.0,11.0,73,0.00,,,0.00,327,weatherlink.com 1.10,2013-01-22 16:04:00,
2013-01-22 10:19:00,1.3,-6.0,30.40,West,264,5.0,11.0,71,0.00,,,0.00,251,weatherlink.com 1.10,2013-01-22 16:19:00,
2013-01-22 10:34:00,2.3,-6.0,30.40,NW,309,9.0,18.0,69,0.00,,,0.00,380,weatherlink.com 1.10,2013-01-22 16:34:00,
2013-01-22 10:49:00,2.9,-6.0,30.40,WNW,292,7.0,12.0,68,0.00,,,0.00,446,weatherlink.com 1.10,2013-01-22 16:49:00,
2013-01-22 11:04:00,4.3,-4.0,30.41,West,277,5.0,16.0,68,0.00,,,0.00,360,weatherlink.com 1.10,2013-01-22 17:04:00,
2013-01-22 11:19:00,4.3,-4.0,30.41,WNW,294,10.0,14.0,67,0.00,,,0.00,476,weatherlink.com 1.10,2013-01-22 17:19:00,
2013-01-22 11:34:00,5.1,-4.0,30.40,WNW,303,9.0,16.0,65,0.00,,,0.00,482,weatherlink.com 1.10,2013-01-22 17:34:00,
2013-01-22 11:49:00,5.6,-4.0,30.39,West,264,8.0,14.0,64,0.00,,,0.00,490,weatherlink.com 1.10,2013-01-22 17:49:00,
2013-01-22 12:05:00,6.1,-4.0,30.38,WSW,249,6.0,17.0,62,0.00,,,0.00,492,weatherlink.com 1.10,2013-01-22 18:05:00,
2013-01-22 12:20:00,6.9,-4.0,30.38,West,266,9.0,16.0,61,0.00,,,0.00,497,weatherlink.com 1.10,2013-01-22 18:20:00,
2013-01-22 12:35:00,7.4,-4.0,30.37,SW,233,8.0,14.0,60,0.00,,,0.00,445,weatherlink.com 1.10,2013-01-22 18:35:00,
2013-01-22 12:50:00,8.1,-3.0,30.37,WNW,287,11.0,16.0,60,0.00,,,0.00,425,weatherlink.com 1.10,2013-01-22 18:50:00,
2013-01-22 13:05:00,8.7,-3.0,30.37,WNW,298,10.0,14.0,59,0.00,,,0.00,288,weatherlink.com 1.10,2013-01-22 19:05:00,
2013-01-22 13:20:00,8.6,-5.0,30.36,WNW,287,8.0,17.0,55,0.00,,,0.00,388,weatherlink.com 1.10,2013-01-22 19:20:00,
2013-01-22 13:35:00,8.4,-4.0,30.35,WSW,238,10.0,16.0,58,0.00,,,0.00,345,weatherlink.com 1.10,2013-01-22 19:35:00,
2013-01-22 13:50:00,9.5,-4.0,30.36,WSW,242,11.0,14.0,55,0.00,,,0.00,350,weatherlink.com 1.10,2013-01-22 19:50:00,
2013-01-22 14:05:00,9.6,-4.0,30.36,West,259,8.0,14.0,55,0.00,,,0.00,339,weatherlink.com 1.10,2013-01-22 20:05:00,
2013-01-22 14:20:00,10.1,-4.0,30.36,WSW,258,5.0,18.0,54,0.00,,,0.00,271,weatherlink.com 1.10,2013-01-22 20:20:00,
2013-01-22 14:35:00,9.9,-4.0,30.36,West,261,5.0,11.0,54,0.00,,,0.00,158,weatherlink.com 1.10,2013-01-22 20:35:00,
2013-01-22 14:50:00,9.7,-3.0,30.35,WNW,301,13.0,16.0,56,0.00,,,0.00,193,weatherlink.com 1.10,2013-01-22 20:50:00,
2013-01-22 15:05:00,9.5,-1.0,30.35,West,281,12.0,18.0,62,0.00,,,0.00,167,weatherlink.com 1.10,2013-01-22 21:05:00,
2013-01-22 15:20:00,9.4,-3.0,30.36,West,279,7.0,12.0,57,0.00,,,0.00,139,weatherlink.com 1.10,2013-01-22 21:20:00,
2013-01-22 15:36:00,9.6,-3.0,30.35,WNW,293,10.0,15.0,56,0.00,,,0.00,149,weatherlink.com 1.10,2013-01-22 21:36:00,
2013-01-22 15:51:00,9.4,-4.0,30.36,WNW,285,5.0,15.0,56,0.00,,,0.00,97,weatherlink.com 1.10,2013-01-22 21:51:00,
2013-01-22 16:06:00,9.4,-3.0,30.35,WNW,292,8.0,15.0,57,0.00,,,0.00,84,weatherlink.com 1.10,2013-01-22 22:06:00,
2013-01-22 16:21:00,9.2,-3.0,30.35,WNW,289,12.0,14.0,57,0.00,,,0.00,46,weatherlink.com 1.10,2013-01-22 22:21:00,
2013-01-22 16:36:00,8.8,-3.0,30.35,WNW,296,11.0,13.0,59,0.00,,,0.00,18,weatherlink.com 1.10,2013-01-22 22:36:00,
2013-01-22 17:06:00,7.7,-3.0,30.35,WNW,297,10.0,11.0,61,0.00,,,0.00,0,weatherlink.com 1.10,2013-01-22 23:06:00,
2013-01-22 17:52:00,6.2,-3.0,30.35,WNW,296,1.0,5.0,65,0.00,,,0.00,0,weatherlink.com 1.10,2013-01-22 23:52:00,
2013-01-22 18:07:00,5.9,-4.0,30.35,WNW,296,2.0,3.0,65,0.00,,,0.00,0,weatherlink.com 1.10,2013-01-23 00:07:00,
2013-01-22 18:22:00,6.3,-3.0,30.35,WNW,296,2.0,3.0,67,0.00,,,0.00,0,weatherlink.com 1.10,2013-01-23 00:22:00,
2013-01-22 18:37:00,7.1,-2.0,30.36,WNW,296,3.0,4.0,66,0.00,,,0.00,0,weatherlink.com 1.10,2013-01-23 00:37:00,
2013-01-22 18:52:00,7.4,-2.0,30.35,WNW,295,4.0,5.0,67,0.00,,,0.00,0,weatherlink.com 1.10,2013-01-23 00:52:00,
2013-01-22 19:07:00,7.7,-2.0,30.35,NW,307,6.0,9.0,65,0.00,,,0.00,0,weatherlink.com 1.10,2013-01-23 01:07:00,
2013-01-22 19:22:00,7.7,-2.0,30.35,WNW,300,5.0,9.0,64,0.00,,,0.00,0,weatherlink.com 1.10,2013-01-23 01:22:00,
2013-01-22 19:37:00,7.7,-2.0,30.35,WNW,295,7.0,9.0,64,0.00,,,0.00,0,weatherlink.com 1.10,2013-01-23 01:37:00,
2013-01-22 19:52:00,7.7,-3.0,30.34,WNW,300,7.0,10.0,63,0.00,,,0.00,0,weatherlink.com 1.10,2013-01-23 01:52:00,
2013-01-22 20:07:00,7.7,-3.0,30.34,NW,305,6.0,11.0,63,0.00,,,0.00,0,weatherlink.com 1.10,2013-01-23 02:07:00,
2013-01-22 20:22:00,7.7,-2.0,30.34,NW,310,4.0,8.0,64,0.00,,,0.00,0,weatherlink.com 1.10,2013-01-23 02:22:00,
2013-01-22 20:38:00,7.8,-2.0,30.34,NW,306,7.0,7.0,65,0.00,,,0.00,0,weatherlink.com 1.10,2013-01-23 02:38:00,
2013-01-22 20:52:00,7.9,-2.0,30.34,WNW,292,2.0,6.0,64,0.00,,,0.00,0,weatherlink.com 1.10,2013-01-23 02:52:00,
2013-01-22 21:08:00,7.9,-2.0,30.34,WNW,292,3.0,6.0,64,0.00,,,0.00,0,weatherlink.com 1.10,2013-01-23 03:08:00,
2013-01-22 21:23:00,7.9,-2.0,30.34,West,281,3.0,6.0,63,0.00,,,0.00,0,weatherlink.com 1.10,2013-01-23 03:23:00,
2013-01-22 21:38:00,7.8,-3.0,30.34,West,280,3.0,6.0,62,0.00,,,0.00,0,weatherlink.com 1.10,2013-01-23 03:38:00,
2013-01-22 21:53:00,8.0,-3.0,30.35,West,269,6.0,9.0,62,0.00,,,0.00,0,weatherlink.com 1.10,2013-01-23 03:53:00,
2013-01-22 22:08:00,8.0,-2.0,30.35,WNW,297,7.0,8.0,63,0.00,,,0.00,0,weatherlink.com 1.10,2013-01-23 04:08:00,
2013-01-22 22:23:00,8.1,-3.0,30.35,WNW,292,5.0,7.0,62,0.00,,,0.00,0,weatherlink.com 1.10,2013-01-23 04:23:00,
2013-01-22 22:38:00,8.2,-2.0,30.35,West,271,2.0,6.0,63,0.00,,,0.00,0,weatherlink.com 1.10,2013-01-23 04:38:00,
2013-01-22 22:53:00,8.2,-2.0,30.35,West,271,3.0,6.0,64,0.00,,,0.00,0,weatherlink.com 1.10,2013-01-23 04:53:00,
2013-01-22 23:08:00,8.4,-2.0,30.36,WNW,284,4.0,7.0,63,0.00,,,0.00,0,weatherlink.com 1.10,2013-01-23 05:08:00,
2013-01-22 23:23:00,8.4,-2.0,30.35,WNW,282,3.0,6.0,62,0.00,,,0.00,0,weatherlink.com 1.10,2013-01-23 05:23:00,
2013-01-22 23:38:00,8.5,-2.0,30.34,WNW,282,3.0,5.0,64,0.00,,,0.00,0,weatherlink.com 1.10,2013-01-23 05:38:00,
2013-01-22 23:53:00,8.6,-2.0,30.34,West,274,3.0,7.0,63,0.00,,,0.00,0,weatherlink.com 1.10,2013-01-23 05:53:00,